Regional Weather Roundup
Issued by NWS

Home | Current Version | Previous Version | Text Only | Print | Product List | Glossary Off
Versions: 1 2 3 4 5 6 7 8 9 10 11 12 13 14 15 16 17 18 19 20 21 22 23 24 25 26 27 28 29 30 31 32 33 34 35 36 37 38 39 40 41 42 43 44 45 46 47 48 49 50

000
ASUS43 KMPX 260810
RWRMN
WEATHER ROUNDUP FOR MINNESOTA
NATIONAL WEATHER SERVICE TWIN CITIES/CHANHASSEN MN
200 AM CST MON JAN 26 2015


NOTE: "FAIR" INDICATES FEW OR NO CLOUDS BELOW 12,000 FEET WITH NO
SIGNIFICANT WEATHER AND/OR OBSTRUCTIONS TO VISIBILITY. N/A MEANS
CURRENT SKY AND/OR WEATHER CONDITIONS ARE NOT AVAILABLE.

MNZ060>063-068>070-260900-
   Twin Cities Metro

CITY           SKY/WX    TMP DP  RH WIND       PRES   REMARKS
TWIN CITIES    CLOUDY    23  17  78 S6        29.90F WCI  16
ST PAUL        CLOUDY    23  18  81 SE7       29.92F WCI  15
CRYSTAL        CLOUDY    24  17  74 S8        29.88F WCI  15
BLAINE         CLOUDY    25  19  80 S9        29.88F WCI  15
LAKEVILLE      CLOUDY    21  19  93 S7        29.89F WCI  13
EDEN PRAIRIE   CLOUDY    23  18  81 S9        29.88F WCI  13
SOUTH ST PAUL  CLOUDY    24  19  80 S7        29.90F WCI  16
LAKE ELMO      CLOUDY    23  19  86 S8        29.90F WCI  14
$$
MNZ001>005-007-008-013>017-022>024-027-028-260900-
   Northwest Minnesota

CITY           SKY/WX    TMP DP  RH WIND       PRES   REMARKS
BEMIDJI        CLOUDY    26  21  82 S10       29.64F WCI  16
HALLOCK        PTCLDY    25  23  93 S8        29.58F WCI  16
ROSEAU         CLOUDY    28  25  86 SW16      29.56F WCI  17
WARROAD        CLOUDY    27  23  86 SW12G17   29.57F WCI  16
THIEF RVR FALL CLOUDY    27  25  93 S21G28    29.60F WCI  13
CROOKSTON      MOCLDY    28  27  93 S16       29.64F WCI  17
FOSSTON        CLOUDY    27  23  86 SW17G26   29.65F WCI  14
DETROIT LAKES  MOCLDY    30  28  93 S7        29.69R WCI  23
MOORHEAD       MOCLDY    30  30 100 S12       29.69R WCI  21
PARK RAPIDS    CLOUDY    26  21  81 S9        29.69F WCI  17
MAHNOMEN       CLOUDY    27  24  88 S10       29.67S WCI  17
$$
MNZ006-009>011-018-025>026-260900-
   North Central Minnesota

CITY           SKY/WX    TMP DP  RH WIND       PRES   REMARKS
BAUDETTE       CLOUDY    25  19  78 S15       29.58F WCI  13
FLAG ISLAND    CLOUDY    21  21 100 S14       29.55F WCI   8
INTL FALLS     LGT SNOW  21  18  88 SE9       29.64F FOG     WCI  11
WASKISH        CLOUDY    27  21  80 S8        29.62F WCI  18
BIG FORK       LGT SNOW  25  19  80 S9        29.70R WCI  15
LONGVILLE      FLURRIES  25  21  86 S8G16     29.69F WCI  16
GRAND RAPIDS   CLOUDY    21  18  86 S14       29.69F WCI   8
CRANE LAKE     SNOW      18  16  93 S7        29.74F VSB 1/2 WCI   8
ORR            LGT SNOW  19  16  86 S8        29.70S WCI   9
COOK           LGT SNOW  19  16  86 S5        29.73F WCI  13
WALKER         CLOUDY    25  20  81 SW10G17   29.68F WCI  15
$$
MNZ012-019>021-037-260900-
   Northeast Minnesota

CITY           SKY/WX    TMP DP  RH WIND       PRES   REMARKS
DULUTH         FLURRIES  20  12  71 S14       29.77F WCI   7
ELY            LGT SNOW  18  14  86 S8        29.76F WCI   7
HIBBING        LGT SNOW  20  14  77 S8        29.73F WCI  10
EVELETH        LGT SNOW  21  16  79 S9        29.76F WCI  11
DULUTH HARBOR  CLOUDY    21  14  73 CALM      29.85F
TWO HARBORS    CLOUDY    21  16  79 S5        29.80F WCI  15
SILVER BAY     LGT SNOW  19  16  86 CALM      29.80F
GRAND MARAIS     N/A     24  17  74 SW13      29.86F WCI  12
G MARAIS ARPRT FLURRIES  16  10  79 S3        29.78F
$$
MNZ029>031-032-039>041-046>048-054>057-064-260900-
   West Central Minnesota

CITY           SKY/WX    TMP DP  RH WIND       PRES   REMARKS
FERGUS FALLS   MOCLDY    28  27  93 S17       29.72F WCI  16
WHEATON        MOCLDY    28  27  93 S14       29.75F WCI  17
MORRIS         MOCLDY    28  28 100 S15       29.74F FOG     WCI  17
ALEXANDRIA     CLOUDY    29  26  89 SW20      29.70F WCI  16
ELBOW LAKE     FAIR      28  27  96 S17       29.72F WCI  16
WADENA         MOCLDY    25  21  86 S8G17     29.69F WCI  16
GLENWOOD       LGT SNOW  28  27  93 S17       29.73F WCI  16
APPLETON       PTCLDY    32  30  93 S10       29.79F WCI  24
BENSON         CLOUDY    30  28  93 S12       29.78F WCI  21
ORTONVILLE     PTCLDY    30  27  86 SE10      29.77F WCI  21
MADISON        CLOUDY    36  34  93 S9        29.84F
WILLMAR        MOCLDY    30  28  93 SW8       29.88R WCI  23
$$
MNZ033>034-036-042>043-049>051-058-059-260900-
   Central Minnesota

CITY           SKY/WX    TMP DP  RH WIND       PRES   REMARKS
ST CLOUD       CLOUDY    25  20  81 S9        29.84F WCI  15
SAUK CENTRE    FLURRIES  28  26  96 S18       29.72F WCI  15
PAYNESVILLE    CLOUDY    26  26  99 S10       29.84S WCI  16
AITKIN         CLOUDY    27  19  74 S12       29.74F WCI  16
PINE RIVER     FLURRIES  25  21  86 S9        29.76F WCI  15
BRAINERD       CLOUDY    24  20  84 S15       29.75F WCI  11
STAPLES        CLOUDY    25  21  86 S9        29.72F WCI  15
LONG PRAIRIE   CLOUDY    27  27 100 S16       29.72F WCI  14
LITTLE FALLS   LGT SNOW  27  23  86 S9        29.77F WCI  17
LITCHFIELD     CLOUDY    28  28 100 SW3       29.86S
BUFFALO        CLOUDY    25  19  80 S5        29.88F WCI  19
MAPLE LAKE     CLOUDY    26  23  87 S6        29.87F WCI  19
$$
MNZ037-044-045-052-053-260900-
   East Central Minnesota

CITY           SKY/WX    TMP DP  RH WIND       PRES   REMARKS
PRINCETON      CLOUDY    25  18  74 S8        29.85F WCI  16
MORA           CLOUDY    23  16  74 S9        29.87S WCI  13
CAMBRIDGE      CLOUDY    25  16  68 S8        29.85F WCI  16
RUSH CITY      CLOUDY    22  16  78 S7        29.87S WCI  14
MOOSE LAKE     CLOUDY    23  16  74 S8        29.81S WCI  14
HINCKLEY       CLOUDY    23  18  80 S10       29.85F WCI  12
CLOQUET        FLURRIES  19  12  73 S8        29.79F WCI   9
MCGREGOR       CLOUDY    23  21  93 S8        29.77F WCI  14
$$
MNZ071>073-080-081-089-090-097-098-260900-
   Southwest Minnesota

CITY           SKY/WX    TMP DP  RH WIND       PRES   REMARKS
MONTEVIDEO     CLOUDY    32  32 100 SW6       29.87F WCI  26
GRANITE FALLS  CLOUDY    32  30  93 CALM      29.89S
CANBY          CLOUDY    34  32  90 SW10G17   29.85R WCI  26
MARSHALL       PTCLDY    32  27  80 W5        29.88S WCI  27
REDWOOD FALLS  CLOUDY    32  29  88 S12       29.87F WCI  23
OLIVIA         MOCLDY    30  30 100 S7        29.86F WCI  23
PIPESTONE      MOCLDY    30  30 100 SW12      29.84F WCI  21
WINDOM         PTCLDY    30  30 100 CALM      29.88S
WORTHINGTON    PTCLDY    30  28  93 SW14      29.88F WCI  20
JACKSON        CLOUDY    32  30  93 S6        29.91R WCI  26
TRACY          PTCLDY    33  31  93 SW14      29.86F WCI  23
SLAYTON        CLOUDY    31  30  96 SW15      29.86S WCI  20
$$
MNZ065>067-074>077-082>085-091>093-260900-
   South Central Minnesota

CITY           SKY/WX    TMP DP  RH WIND       PRES   REMARKS
MANKATO        CLOUDY    27  21  80 S10       29.90F WCI  17
NEW ULM        CLOUDY    30  28  93 S10       29.87F WCI  21
ST JAMES       CLOUDY    32  28  86 S12       29.91F WCI  23
FAIRMONT       CLOUDY    30  25  80 S12       29.92R WCI  21
GLENCOE        CLOUDY    28  26  91 S9        29.87F WCI  19
FARIBAULT      CLOUDY    25  21  86 S6        29.92F WCI  18
OWATONNA       CLOUDY    25  19  80 S9        29.90S WCI  15
WASECA         CLOUDY    27  23  86 S10       29.92S WCI  17
ALBERT LEA     CLOUDY    25  23  93 S6        29.93F WCI  18
$$
MNZ078>079-086>088-094>096-260900-
   Southeast Minnesota

CITY           SKY/WX    TMP DP  RH WIND       PRES   REMARKS
ROCHESTER      CLOUDY    23  19  85 S9        29.93F WCI  13
RED WING       CLOUDY    21  18  86 SE3       29.92F
STANTON        CLOUDY    25  20  83 S6        29.90F WCI  18
DODGE CENTER   CLOUDY    23  21  93 S9        29.91F WCI  13
WINONA         CLOUDY    21  18  86 SE5       29.97F WCI  15
AUSTIN         MOCLDY    23  19  86 S7        29.94F WCI  15
PRESTON        CLOUDY    24  19  83 SW8       29.93F WCI  15
$$
ABBREVIATIONS USED IN REMARKS
   TC - TEMPERATURES IN CELSIUS
  WCI - WIND CHILL INDEX
   HX - HEAT INDEX
  VSB - VISIBILITY
$$



USA.gov is the U.S. government's official web portal to all federal, state and local government web resources and services.